Location: Trebic
(49.2170°N, 15.8830°E)
Time: 21:43:43
(UTC+02:00)

Transit 4A - Pass Details

Date: 01 September 2019
Orbit: 867 x 978 km, 66.8° (Epoch: 17 October)

Event Time Altitude Azimuth Distance (km) Brightness Sun altitude
Rises 00:56:57 0° 324° (NW) 3,642 11.7 -32.3°
Reaches altitude 10° 00:59:35 10° 327° (NNW) 2,678 10.9 -32.3°
Enters shadow 01:05:21 63° 26° (NNE) 1,030 8.2 -32.3°
Maximum altitude 01:05:47 65° 50° (NE) 1,014 - -32.3°
Drops below altitude 10° 01:11:46 10° 132° (SE) 2,586 - -32.2°
Sets 01:14:15 0° 136° (SE) 3,507 - -32.2°
